iso_date,epoch_date,Year,Hour,Min,DOY,POS_DOY,Lat,Lon,BP,Ts,Ta,has_bp,has_ts,has_ta,BuoyID,Buoy_Type,Buoy_Owner,Logistics,Hemisphere
2017-04-11T13:58:04Z,1491919085,2017,14,58,101.582,101.582,89.20267,30.75068,-999.00,-1.73,-999.0,no,yes,no,38,unknown,unknown,unknown,South
2017-04-11T16:58:04Z,1491929885,2017,17,58,101.707,101.707,89.20175,30.65716,-999.00,-1.73,-999.0,no,yes,no,38,unknown,unknown,unknown,South
2017-04-11T19:58:04Z,1491940685,2017,20,58,101.832,101.832,89.20062,30.56177,-999.00,-1.73,-999.0,no,yes,no,38,unknown,unknown,unknown,South
2017-04-11T22:58:04Z,1491951485,2017,23,58,101.957,101.957,89.19939,30.44235,-999.00,-1.73,-999.0,no,yes,no,38,unknown,unknown,unknown,South
2017-04-12T01:58:04Z,1491962285,2017,2,58,102.082,102.082,89.1982,30.30346,-999.00,-1.73,-999.0,no,yes,no,38,unknown,unknown,unknown,South
2017-04-12T04:58:04Z,1491973085,2017,5,58,102.207,102.207,89.19671,30.19125,-999.00,-1.73,-999.0,no,yes,no,38,unknown,unknown,unknown,South
2017-04-12T07:58:04Z,1491983885,2017,8,58,102.332,102.332,89.19499,30.05216,-999.00,-1.73,-999.0,no,yes,no,38,unknown,unknown,unknown,South
2017-04-12T10:58:04Z,1491994685,2017,11,58,102.457,102.457,89.19305,29.88623,-999.00,-1.73,-999.0,no,yes,no,38,unknown,unknown,unknown,South
2017-04-12T13:58:04Z,1492005485,2017,14,58,102.582,102.582,89.19073,29.74623,-999.00,-1.73,-999.0,no,yes,no,38,unknown,unknown,unknown,South
2017-04-12T16:58:04Z,1492016285,2017,17,58,102.707,102.707,89.1884,29.62993,-999.00,-1.73,-999.0,no,yes,no,38,unknown,unknown,unknown,South
2017-04-12T19:58:04Z,1492027085,2017,20,58,102.832,102.832,89.18513,29.50623,-999.00,-1.73,-999.0,no,yes,no,38,unknown,unknown,unknown,South
2017-04-12T22:58:04Z,1492037885,2017,23,58,102.957,102.957,89.1798,29.30319,-999.00,-1.73,-999.0,no,yes,no,38,unknown,unknown,unknown,South
2017-04-13T01:58:04Z,1492048685,2017,2,58,103.082,103.082,89.17385,29.03727,-999.00,-1.72,-999.0,no,yes,no,38,unknown,unknown,unknown,South
2017-04-13T04:58:04Z,1492059485,2017,5,58,103.207,103.207,89.16844,28.79118,-999.00,-1.72,-999.0,no,yes,no,38,unknown,unknown,unknown,South
2017-04-13T07:58:04Z,1492070285,2017,8,58,103.332,103.332,89.16283,28.49992,-999.00,-1.72,-999.0,no,yes,no,38,unknown,unknown,unknown,South
2017-04-13T10:58:04Z,1492081085,2017,11,58,103.457,103.457,89.15613,28.0679,-999.00,-1.72,-999.0,no,yes,no,38,unknown,unknown,unknown,South
2017-04-13T13:58:04Z,1492091885,2017,14,58,103.582,103.582,89.14979,27.48652,-999.00,-1.72,-999.0,no,yes,no,38,unknown,unknown,unknown,South
2017-04-13T16:58:04Z,1492102685,2017,17,58,103.707,103.707,89.14393,26.92549,-999.00,-1.72,-999.0,no,yes,no,38,unknown,unknown,unknown,South
2017-04-13T19:58:04Z,1492113485,2017,20,58,103.832,103.832,89.1366,26.35961,-999.00,-1.71,-999.0,no,yes,no,38,unknown,unknown,unknown,South
2017-04-13T22:58:04Z,1492124285,2017,23,58,103.957,103.957,89.12728,25.70341,-999.00,-1.71,-999.0,no,yes,no,38,unknown,unknown,unknown,South
2017-04-14T01:58:04Z,1492135085,2017,2,58,104.082,104.082,89.11788,25.04108,-999.00,-1.71,-999.0,no,yes,no,38,unknown,unknown,unknown,South
2017-04-14T04:58:04Z,1492145885,2017,5,58,104.207,104.207,89.11049,24.49179,-999.00,-1.71,-999.0,no,yes,no,38,unknown,unknown,unknown,South
2017-04-14T07:58:04Z,1492156685,2017,8,58,104.332,104.332,89.10339,24.01056,-999.00,-1.72,-999.0,no,yes,no,38,unknown,unknown,unknown,South
2017-04-14T10:58:04Z,1492167485,2017,11,58,104.457,104.457,89.09559,23.49901,-999.00,-1.72,-999.0,no,yes,no,38,unknown,unknown,unknown,South
2017-04-14T13:58:04Z,1492178285,2017,14,58,104.582,104.582,89.08832,23.03652,-999.00,-1.72,-999.0,no,yes,no,38,unknown,unknown,unknown,South
2017-04-14T16:58:04Z,1492189085,2017,17,58,104.707,104.707,89.08156,22.72925,-999.00,-1.72,-999.0,no,yes,no,38,unknown,unknown,unknown,South
2017-04-14T19:58:04Z,1492199885,2017,20,58,104.832,104.832,89.07395,22.46506,-999.00,-1.72,-999.0,no,yes,no,38,unknown,unknown,unknown,South
2017-04-14T22:58:04Z,1492210685,2017,23,58,104.957,104.957,89.06478,22.11403,-999.00,-1.72,-999.0,no,yes,no,38,unknown,unknown,unknown,South
2017-04-15T01:58:04Z,1492221485,2017,2,58,105.082,105.082,89.05545,21.76627,-999.00,-1.72,-999.0,no,yes,no,38,unknown,unknown,unknown,South
2017-04-15T04:58:04Z,1492232285,2017,5,58,105.207,105.207,89.04464,21.50064,-999.00,-1.73,-999.0,no,yes,no,38,unknown,unknown,unknown,South
2017-04-15T07:58:04Z,1492243085,2017,8,58,105.332,105.332,89.032,21.21421,-999.00,-1.73,-999.0,no,yes,no,38,unknown,unknown,unknown,South
2017-04-15T10:58:04Z,1492253885,2017,11,58,105.457,105.457,89.01786,20.82737,-999.00,-1.73,-999.0,no,yes,no,38,unknown,unknown,unknown,South
2017-04-15T13:58:04Z,1492264685,2017,14,58,105.582,105.582,89.00442,20.41769,-999.00,-1.73,-999.0,no,yes,no,38,unknown,unknown,unknown,South
2017-04-15T16:58:04Z,1492275485,2017,17,58,105.707,105.707,88.99219,20.06628,-999.00,-1.74,-999.0,no,yes,no,38,unknown,unknown,unknown,South
2017-04-15T19:58:04Z,1492286285,2017,20,58,105.832,105.832,88.98109,19.72317,-999.00,-1.74,-999.0,no,yes,no,38,unknown,unknown,unknown,South
2017-04-15T22:58:04Z,1492297085,2017,23,58,105.957,105.957,88.97083,19.32401,-999.00,-1.74,-999.0,no,yes,no,38,unknown,unknown,unknown,South
2017-04-16T01:58:04Z,1492307885,2017,2,58,106.082,106.082,88.96122,18.88483,-999.00,-1.73,-999.0,no,yes,no,38,unknown,unknown,unknown,South
2017-04-16T04:58:04Z,1492318685,2017,5,58,106.207,106.207,88.95276,18.51551,-999.00,-1.71,-999.0,no,yes,no,38,unknown,unknown,unknown,South
2017-04-16T07:58:04Z,1492329485,2017,8,58,106.332,106.332,88.94491,18.21051,-999.00,-1.71,-999.0,no,yes,no,38,unknown,unknown,unknown,South
2017-04-16T10:58:04Z,1492340285,2017,11,58,106.457,106.457,88.93724,17.92141,-999.00,-1.7,-999.0,no,yes,no,38,unknown,unknown,unknown,South
2017-04-16T13:58:04Z,1492351085,2017,14,58,106.582,106.582,88.92994,17.63952,-999.00,-1.7,-999.0,no,yes,no,38,unknown,unknown,unknown,South
2017-04-16T16:58:04Z,1492361885,2017,17,58,106.707,106.707,88.92403,17.42925,-999.00,-1.7,-999.0,no,yes,no,38,unknown,unknown,unknown,South
2017-04-16T19:58:04Z,1492372685,2017,20,58,106.832,106.832,88.9188,17.28297,-999.00,-1.71,-999.0,no,yes,no,38,unknown,unknown,unknown,South
2017-04-16T22:58:04Z,1492383485,2017,23,58,106.957,106.957,88.91436,17.14958,-999.00,-1.7,-999.0,no,yes,no,38,unknown,unknown,unknown,South
2017-04-17T01:58:04Z,1492394285,2017,2,58,107.082,107.082,88.91109,17.05675,-999.00,-1.7,-999.0,no,yes,no,38,unknown,unknown,unknown,South
2017-04-17T04:58:04Z,1492405085,2017,5,58,107.207,107.207,88.90934,17.0152,-999.00,-1.7,-999.0,no,yes,no,38,unknown,unknown,unknown,South
2017-04-17T07:58:04Z,1492415885,2017,8,58,107.332,107.332,88.90814,17.00029,-999.00,-1.7,-999.0,no,yes,no,38,unknown,unknown,unknown,South
2017-04-17T10:58:04Z,1492426685,2017,11,58,107.457,107.457,88.90724,16.95954,-999.00,-1.7,-999.0,no,yes,no,38,unknown,unknown,unknown,South
2017-04-17T13:58:04Z,1492437485,2017,14,58,107.582,107.582,88.90586,16.84519,-999.00,-1.69,-999.0,no,yes,no,38,unknown,unknown,unknown,South
2017-04-17T16:58:04Z,1492448285,2017,17,58,107.707,107.707,88.90449,16.7532,-999.00,-1.69,-999.0,no,yes,no,38,unknown,unknown,unknown,South
2017-04-17T19:58:04Z,1492459085,2017,20,58,107.832,107.832,88.90266,16.65204,-999.00,-1.69,-999.0,no,yes,no,38,unknown,unknown,unknown,South
2017-04-17T22:58:04Z,1492469885,2017,23,58,107.957,107.957,88.90063,16.48726,-999.00,-1.69,-999.0,no,yes,no,38,unknown,unknown,unknown,South
2017-04-18T01:58:04Z,1492480685,2017,2,58,108.082,108.082,88.89833,16.2381,-999.00,-1.69,-999.0,no,yes,no,38,unknown,unknown,unknown,South
2017-04-18T04:58:04Z,1492491485,2017,5,58,108.207,108.207,88.89497,15.92707,-999.00,-1.69,-999.0,no,yes,no,38,unknown,unknown,unknown,South
2017-04-18T07:58:04Z,1492502285,2017,8,58,108.332,108.332,88.89129,15.62958,-999.00,-1.69,-999.0,no,yes,no,38,unknown,unknown,unknown,South
2017-04-18T10:58:04Z,1492513085,2017,11,58,108.457,108.457,88.88717,15.30114,-999.00,-1.69,-999.0,no,yes,no,38,unknown,unknown,unknown,South
2017-04-18T13:58:04Z,1492523885,2017,14,58,108.582,108.582,88.88326,14.90979,-999.00,-1.69,-999.0,no,yes,no,38,unknown,unknown,unknown,South
2017-04-18T16:58:04Z,1492534685,2017,17,58,108.707,108.707,88.88027,14.53419,-999.00,-1.69,-999.0,no,yes,no,38,unknown,unknown,unknown,South
2017-04-18T19:58:04Z,1492545485,2017,20,58,108.832,108.832,88.87734,14.21856,-999.00,-1.69,-999.0,no,yes,no,38,unknown,unknown,unknown,South
2017-04-18T22:58:04Z,1492556285,2017,23,58,108.957,108.957,88.87391,13.87298,-999.00,-1.69,-999.0,no,yes,no,38,unknown,unknown,unknown,South
2017-04-19T01:58:04Z,1492567085,2017,2,58,109.082,109.082,88.87124,13.46555,-999.00,-1.69,-999.0,no,yes,no,38,unknown,unknown,unknown,South
2017-04-19T04:58:04Z,1492577885,2017,5,58,109.207,109.207,88.87013,13.09518,-999.00,-1.7,-999.0,no,yes,no,38,unknown,unknown,unknown,South
2017-04-19T07:58:04Z,1492588685,2017,8,58,109.332,109.332,88.86973,12.81542,-999.00,-1.69,-999.0,no,yes,no,38,unknown,unknown,unknown,South
2017-04-19T10:58:04Z,1492599485,2017,11,58,109.457,109.457,88.86905,12.56443,-999.00,-1.69,-999.0,no,yes,no,38,unknown,unknown,unknown,South
2017-04-19T13:58:04Z,1492610285,2017,14,58,109.582,109.582,88.86782,12.29152,-999.00,-1.69,-999.0,no,yes,no,38,unknown,unknown,unknown,South
2017-04-19T16:58:04Z,1492621085,2017,17,58,109.707,109.707,88.86638,12.04042,-999.00,-1.69,-999.0,no,yes,no,38,unknown,unknown,unknown,South
2017-04-19T19:58:04Z,1492631885,2017,20,58,109.832,109.832,88.86393,11.8115,-999.00,-1.69,-999.0,no,yes,no,38,unknown,unknown,unknown,South
2017-04-19T22:58:04Z,1492642685,2017,23,58,109.957,109.957,88.8593,11.64102,-999.00,-1.69,-999.0,no,yes,no,38,unknown,unknown,unknown,South
2017-04-20T01:58:04Z,1492653485,2017,2,58,110.082,110.082,88.85485,11.5669,-999.00,-1.69,-999.0,no,yes,no,38,unknown,unknown,unknown,South
2017-04-20T04:58:04Z,1492664285,2017,5,58,110.207,110.207,88.85087,11.61918,-999.00,-1.69,-999.0,no,yes,no,38,unknown,unknown,unknown,South
2017-04-20T07:58:04Z,1492675085,2017,8,58,110.332,110.332,88.84606,11.70203,-999.00,-1.69,-999.0,no,yes,no,38,unknown,unknown,unknown,South
2017-04-20T10:58:04Z,1492685885,2017,11,58,110.457,110.457,88.83949,11.76319,-999.00,-1.69,-999.0,no,yes,no,38,unknown,unknown,unknown,South
2017-04-20T13:58:04Z,1492696685,2017,14,58,110.582,110.582,88.83088,11.75506,-999.00,-1.69,-999.0,no,yes,no,38,unknown,unknown,unknown,South
2017-04-20T16:58:04Z,1492707485,2017,17,58,110.707,110.707,88.82197,11.73698,-999.00,-1.69,-999.0,no,yes,no,38,unknown,unknown,unknown,South
2017-04-20T19:58:04Z,1492718285,2017,20,58,110.832,110.832,88.81273,11.77017,-999.00,-1.69,-999.0,no,yes,no,38,unknown,unknown,unknown,South
2017-04-20T22:58:04Z,1492729085,2017,23,58,110.957,110.957,88.8025,11.81531,-999.00,-1.69,-999.0,no,yes,no,38,unknown,unknown,unknown,South
2017-04-21T01:58:04Z,1492739885,2017,2,58,111.082,111.082,88.79217,11.83143,-999.00,-1.69,-999.0,no,yes,no,38,unknown,unknown,unknown,South
2017-04-21T04:58:04Z,1492750685,2017,5,58,111.207,111.207,88.782,11.81367,-999.00,-1.69,-999.0,no,yes,no,38,unknown,unknown,unknown,South
2017-04-21T07:58:04Z,1492761485,2017,8,58,111.332,111.332,88.77229,11.75867,-999.00,-1.69,-999.0,no,yes,no,38,unknown,unknown,unknown,South
2017-04-21T10:58:04Z,1492772285,2017,11,58,111.457,111.457,88.7623,11.66613,-999.00,-1.69,-999.0,no,yes,no,38,unknown,unknown,unknown,South
2017-04-21T13:58:04Z,1492783085,2017,14,58,111.582,111.582,88.75228,11.51447,-999.00,-1.69,-999.0,no,yes,no,38,unknown,unknown,unknown,South
2017-04-21T16:58:04Z,1492793885,2017,17,58,111.707,111.707,88.74288,11.34663,-999.00,-1.69,-999.0,no,yes,no,38,unknown,unknown,unknown,South
2017-04-21T19:58:04Z,1492804685,2017,20,58,111.832,111.832,88.73384,11.21592,-999.00,-1.69,-999.0,no,yes,no,38,unknown,unknown,unknown,South
2017-04-21T22:58:04Z,1492815485,2017,23,58,111.957,111.957,88.72502,11.12502,-999.00,-1.69,-999.0,no,yes,no,38,unknown,unknown,unknown,South
2017-04-22T01:58:04Z,1492826285,2017,2,58,112.082,112.082,88.71645,11.04985,-999.00,-1.69,-999.0,no,yes,no,38,unknown,unknown,unknown,South
2017-04-22T04:58:04Z,1492837085,2017,5,58,112.207,112.207,88.70801,10.98731,-999.00,-1.69,-999.0,no,yes,no,38,unknown,unknown,unknown,South
2017-04-22T07:58:04Z,1492847885,2017,8,58,112.332,112.332,88.69888,10.94482,-999.00,-1.69,-999.0,no,yes,no,38,unknown,unknown,unknown,South
2017-04-22T10:58:04Z,1492858685,2017,11,58,112.457,112.457,88.68877,10.90816,-999.00,-1.69,-999.0,no,yes,no,38,unknown,unknown,unknown,South
2017-04-22T13:58:04Z,1492869485,2017,14,58,112.582,112.582,88.67804,10.86301,-999.00,-1.69,-999.0,no,yes,no,38,unknown,unknown,unknown,South
2017-04-22T16:58:04Z,1492880285,2017,17,58,112.707,112.707,88.66617,10.78107,-999.00,-1.69,-999.0,no,yes,no,38,unknown,unknown,unknown,South
2017-04-22T19:58:04Z,1492891085,2017,20,58,112.832,112.832,88.65322,10.6605,-999.00,-1.7,-999.0,no,yes,no,38,unknown,unknown,unknown,South
2017-04-22T22:58:04Z,1492901885,2017,23,58,112.957,112.957,88.64051,10.4737,-999.00,-1.7,-999.0,no,yes,no,38,unknown,unknown,unknown,South
2017-04-23T01:58:04Z,1492912685,2017,2,58,113.082,113.082,88.62963,10.22484,-999.00,-1.7,-999.0,no,yes,no,38,unknown,unknown,unknown,South
2017-04-23T04:58:04Z,1492923485,2017,5,58,113.207,113.207,88.61922,9.95077,-999.00,-1.7,-999.0,no,yes,no,38,unknown,unknown,unknown,South
2017-04-23T07:58:04Z,1492934285,2017,8,58,113.332,113.332,88.60813,9.68019,-999.00,-1.69,-999.0,no,yes,no,38,unknown,unknown,unknown,South
2017-04-23T10:58:04Z,1492945085,2017,11,58,113.457,113.457,88.59694,9.43822,-999.00,-1.69,-999.0,no,yes,no,38,unknown,unknown,unknown,South
2017-04-23T13:58:04Z,1492955885,2017,14,58,113.582,113.582,88.58695,9.26453,-999.00,-1.69,-999.0,no,yes,no,38,unknown,unknown,unknown,South
2017-04-23T16:58:04Z,1492966685,2017,17,58,113.707,113.707,88.57674,9.12349,-999.00,-1.69,-999.0,no,yes,no,38,unknown,unknown,unknown,South
2017-04-23T19:58:04Z,1492977485,2017,20,58,113.832,113.832,88.56563,8.95285,-999.00,-1.69,-999.0,no,yes,no,38,unknown,unknown,unknown,South
2017-04-23T22:58:04Z,1492988285,2017,23,58,113.957,113.957,88.555,8.81798,-999.00,-1.69,-999.0,no,yes,no,38,unknown,unknown,unknown,South
2017-04-24T01:58:04Z,1492999085,2017,2,58,114.082,114.082,88.54493,8.68889,-999.00,-1.69,-999.0,no,yes,no,38,unknown,unknown,unknown,South
2017-04-24T04:58:04Z,1493009885,2017,5,58,114.207,114.207,88.53401,8.52886,-999.00,-1.69,-999.0,no,yes,no,38,unknown,unknown,unknown,South
2017-04-24T07:58:04Z,1493020685,2017,8,58,114.332,114.332,88.52202,8.32724,-999.00,-1.69,-999.0,no,yes,no,38,unknown,unknown,unknown,South
2017-04-24T10:58:04Z,1493031485,2017,11,58,114.457,114.457,88.50961,8.15329,-999.00,-1.69,-999.0,no,yes,no,38,unknown,unknown,unknown,South
2017-04-24T13:58:04Z,1493042285,2017,14,58,114.582,114.582,88.49746,8.04736,-999.00,-1.7,-999.0,no,yes,no,38,unknown,unknown,unknown,South
2017-04-24T16:58:04Z,1493053085,2017,17,58,114.707,114.707,88.48417,7.98378,-999.00,-1.7,-999.0,no,yes,no,38,unknown,unknown,unknown,South
2017-04-24T19:58:04Z,1493063885,2017,20,58,114.832,114.832,88.4685,7.91813,-999.00,-1.7,-999.0,no,yes,no,38,unknown,unknown,unknown,South
2017-04-24T22:58:04Z,1493074685,2017,23,58,114.957,114.957,88.45356,7.87722,-999.00,-1.7,-999.0,no,yes,no,38,unknown,unknown,unknown,South
2017-04-25T01:58:04Z,1493085485,2017,2,58,115.082,115.082,88.44066,7.88055,-999.00,-1.7,-999.0,no,yes,no,38,unknown,unknown,unknown,South
2017-04-25T04:58:04Z,1493096285,2017,5,58,115.207,115.207,88.42716,7.86644,-999.00,-1.71,-999.0,no,yes,no,38,unknown,unknown,unknown,South
2017-04-25T07:58:04Z,1493107085,2017,8,58,115.332,115.332,88.41313,7.83125,-999.00,-1.71,-999.0,no,yes,no,38,unknown,unknown,unknown,South
2017-04-25T10:58:04Z,1493117885,2017,11,58,115.457,115.457,88.40041,7.83181,-999.00,-1.7,-999.0,no,yes,no,38,unknown,unknown,unknown,South
2017-04-25T13:58:04Z,1493128685,2017,14,58,115.582,115.582,88.38838,7.92699,-999.00,-1.7,-999.0,no,yes,no,38,unknown,unknown,unknown,South
2017-04-25T16:58:04Z,1493139485,2017,17,58,115.707,115.707,88.37537,8.09112,-999.00,-1.71,-999.0,no,yes,no,38,unknown,unknown,unknown,South
2017-04-25T19:58:04Z,1493150285,2017,20,58,115.832,115.832,88.36141,8.26536,-999.00,-1.71,-999.0,no,yes,no,38,unknown,unknown,unknown,South
2017-04-25T22:58:04Z,1493161085,2017,23,58,115.957,115.957,88.34804,8.41048,-999.00,-1.72,-999.0,no,yes,no,38,unknown,unknown,unknown,South
2017-04-26T01:58:04Z,1493171885,2017,2,58,116.082,116.082,88.33584,8.59028,-999.00,-1.71,-999.0,no,yes,no,38,unknown,unknown,unknown,South
2017-04-26T04:58:04Z,1493182685,2017,5,58,116.207,116.207,88.32344,8.78498,-999.00,-1.71,-999.0,no,yes,no,38,unknown,unknown,unknown,South
2017-04-26T07:58:04Z,1493193485,2017,8,58,116.332,116.332,88.31061,8.94634,-999.00,-1.71,-999.0,no,yes,no,38,unknown,unknown,unknown,South
2017-04-26T10:58:04Z,1493204285,2017,11,58,116.457,116.457,88.29668,9.11652,-999.00,-1.71,-999.0,no,yes,no,38,unknown,unknown,unknown,South
2017-04-26T13:58:04Z,1493215085,2017,14,58,116.582,116.582,88.28255,9.35135,-999.00,-1.71,-999.0,no,yes,no,38,unknown,unknown,unknown,South
2017-04-26T16:58:04Z,1493225885,2017,17,58,116.707,116.707,88.26918,9.5997,-999.00,-1.71,-999.0,no,yes,no,38,unknown,unknown,unknown,South
2017-04-26T19:58:04Z,1493236685,2017,20,58,116.832,116.832,88.25654,9.83027,-999.00,-1.71,-999.0,no,yes,no,38,unknown,unknown,unknown,South
2017-04-26T22:58:04Z,1493247485,2017,23,58,116.957,116.957,88.24511,10.07057,-999.00,-1.72,-999.0,no,yes,no,38,unknown,unknown,unknown,South
2017-04-27T01:58:04Z,1493258285,2017,2,58,117.082,117.082,88.23512,10.35458,-999.00,-1.72,-999.0,no,yes,no,38,unknown,unknown,unknown,South
2017-04-27T04:58:04Z,1493269085,2017,5,58,117.207,117.207,88.22592,10.66866,-999.00,-1.72,-999.0,no,yes,no,38,unknown,unknown,unknown,South
2017-04-27T07:58:04Z,1493279885,2017,8,58,117.332,117.332,88.21664,10.99146,-999.00,-1.72,-999.0,no,yes,no,38,unknown,unknown,unknown,South
2017-04-27T10:58:04Z,1493290685,2017,11,58,117.457,117.457,88.20741,11.32584,-999.00,-1.72,-999.0,no,yes,no,38,unknown,unknown,unknown,South
2017-04-27T13:58:04Z,1493301485,2017,14,58,117.582,117.582,88.19909,11.7261,-999.00,-1.72,-999.0,no,yes,no,38,unknown,unknown,unknown,South
2017-04-27T16:58:04Z,1493312285,2017,17,58,117.707,117.707,88.19093,12.12731,-999.00,-1.73,-999.0,no,yes,no,38,unknown,unknown,unknown,South
2017-04-27T19:58:04Z,1493323085,2017,20,58,117.832,117.832,88.18338,12.43089,-999.00,-1.73,-999.0,no,yes,no,38,unknown,unknown,unknown,South
2017-04-27T22:58:04Z,1493333885,2017,23,58,117.957,117.957,88.17649,12.65766,-999.00,-1.73,-999.0,no,yes,no,38,unknown,unknown,unknown,South
2017-04-28T01:58:04Z,1493344685,2017,2,58,118.082,118.082,88.1713,12.81553,-999.00,-1.73,-999.0,no,yes,no,38,unknown,unknown,unknown,South
2017-04-28T04:58:04Z,1493355485,2017,5,58,118.207,118.207,88.16736,12.86719,-999.00,-1.73,-999.0,no,yes,no,38,unknown,unknown,unknown,South
2017-04-28T07:58:04Z,1493366285,2017,8,58,118.332,118.332,88.16026,12.92894,-999.00,-1.73,-999.0,no,yes,no,38,unknown,unknown,unknown,South
2017-04-28T10:58:04Z,1493377085,2017,11,58,118.457,118.457,88.15144,12.96492,-999.00,-1.73,-999.0,no,yes,no,38,unknown,unknown,unknown,South
2017-04-28T13:58:04Z,1493387885,2017,14,58,118.582,118.582,88.14157,13.04477,-999.00,-1.73,-999.0,no,yes,no,38,unknown,unknown,unknown,South
2017-04-28T16:58:04Z,1493398685,2017,17,58,118.707,118.707,88.13152,13.11601,-999.00,-1.73,-999.0,no,yes,no,38,unknown,unknown,unknown,South
2017-04-28T19:58:04Z,1493409485,2017,20,58,118.832,118.832,88.12311,13.15008,-999.00,-1.73,-999.0,no,yes,no,38,unknown,unknown,unknown,South
2017-04-28T22:58:04Z,1493420285,2017,23,58,118.957,118.957,88.11495,13.17544,-999.00,-1.73,-999.0,no,yes,no,38,unknown,unknown,unknown,South
2017-04-29T01:58:04Z,1493431085,2017,2,58,119.082,119.082,88.10547,13.22177,-999.00,-1.73,-999.0,no,yes,no,38,unknown,unknown,unknown,South
2017-04-29T04:58:04Z,1493441885,2017,5,58,119.207,119.207,88.09595,13.24181,-999.00,-1.73,-999.0,no,yes,no,38,unknown,unknown,unknown,South
2017-04-29T07:58:04Z,1493452685,2017,8,58,119.332,119.332,88.08837,13.24685,-999.00,-1.73,-999.0,no,yes,no,38,unknown,unknown,unknown,South
2017-04-29T10:58:04Z,1493463485,2017,11,58,119.457,119.457,88.08089,13.18413,-999.00,-1.74,-999.0,no,yes,no,38,unknown,unknown,unknown,South
2017-04-29T13:58:04Z,1493474285,2017,14,58,119.582,119.582,88.07462,13.09517,-999.00,-1.74,-999.0,no,yes,no,38,unknown,unknown,unknown,South
2017-04-29T16:58:04Z,1493485085,2017,17,58,119.707,119.707,88.07025,13.00647,-999.00,-1.74,-999.0,no,yes,no,38,unknown,unknown,unknown,South
2017-04-29T19:58:04Z,1493495885,2017,20,58,119.832,119.832,88.06762,12.91945,-999.00,-1.74,-999.0,no,yes,no,38,unknown,unknown,unknown,South
2017-04-29T22:58:04Z,1493506685,2017,23,58,119.957,119.957,88.06444,12.80029,-999.00,-1.73,-999.0,no,yes,no,38,unknown,unknown,unknown,South
2017-04-30T01:58:04Z,1493517485,2017,2,58,120.082,120.082,88.06184,12.68321,-999.00,-1.73,-999.0,no,yes,no,38,unknown,unknown,unknown,South
2017-04-30T04:58:04Z,1493528285,2017,5,58,120.207,120.207,88.05996,12.54403,-999.00,-1.73,-999.0,no,yes,no,38,unknown,unknown,unknown,South
2017-04-30T07:58:04Z,1493539085,2017,8,58,120.332,120.332,88.05821,12.41467,-999.00,-1.73,-999.0,no,yes,no,38,unknown,unknown,unknown,South
2017-04-30T10:58:04Z,1493549885,2017,11,58,120.457,120.457,88.05752,12.33323,-999.00,-1.73,-999.0,no,yes,no,38,unknown,unknown,unknown,South
2017-04-30T13:58:04Z,1493560685,2017,14,58,120.582,120.582,88.05599,12.27083,-999.00,-1.73,-999.0,no,yes,no,38,unknown,unknown,unknown,South
2017-04-30T16:58:04Z,1493571485,2017,17,58,120.707,120.707,88.05677,12.22404,-999.00,-1.74,-999.0,no,yes,no,38,unknown,unknown,unknown,South
2017-04-30T19:58:04Z,1493582285,2017,20,58,120.832,120.832,88.06007,12.2012,-999.00,-1.74,-999.0,no,yes,no,38,unknown,unknown,unknown,South
2017-04-30T22:58:04Z,1493593085,2017,23,58,120.957,120.957,88.06256,12.14861,-999.00,-1.74,-999.0,no,yes,no,38,unknown,unknown,unknown,South
2017-05-01T01:58:04Z,1493603885,2017,2,58,121.082,121.082,88.06198,12.04381,-999.00,-1.73,-999.0,no,yes,no,38,unknown,unknown,unknown,South
2017-05-01T04:58:04Z,1493614685,2017,5,58,121.207,121.207,88.06083,11.91689,-999.00,-1.74,-999.0,no,yes,no,38,unknown,unknown,unknown,South
2017-05-01T07:58:04Z,1493625485,2017,8,58,121.332,121.332,88.0597,11.79617,-999.00,-1.74,-999.0,no,yes,no,38,unknown,unknown,unknown,South
2017-05-01T10:58:04Z,1493636285,2017,11,58,121.457,121.457,88.05537,11.62761,-999.00,-1.73,-999.0,no,yes,no,38,unknown,unknown,unknown,South
2017-05-01T13:58:04Z,1493647085,2017,14,58,121.582,121.582,88.04933,11.39534,-999.00,-1.73,-999.0,no,yes,no,38,unknown,unknown,unknown,South
2017-05-01T16:58:04Z,1493657885,2017,17,58,121.707,121.707,88.04148,11.14847,-999.00,-1.73,-999.0,no,yes,no,38,unknown,unknown,unknown,South
2017-05-01T19:58:04Z,1493668685,2017,20,58,121.832,121.832,88.0316,10.85565,-999.00,-1.73,-999.0,no,yes,no,38,unknown,unknown,unknown,South
2017-05-01T22:58:04Z,1493679485,2017,23,58,121.957,121.957,88.01839,10.62457,-999.00,-1.74,-999.0,no,yes,no,38,unknown,unknown,unknown,South
2017-05-02T01:58:04Z,1493690285,2017,2,58,122.082,122.082,88.0038,10.45843,-999.00,-1.74,-999.0,no,yes,no,38,unknown,unknown,unknown,South
2017-05-02T04:58:04Z,1493701085,2017,5,58,122.207,122.207,87.99026,10.28237,-999.00,-1.75,-999.0,no,yes,no,38,unknown,unknown,unknown,South
2017-05-02T07:58:04Z,1493711885,2017,8,58,122.332,122.332,87.97816,10.15931,-999.00,-1.75,-999.0,no,yes,no,38,unknown,unknown,unknown,South
2017-05-02T10:58:04Z,1493722685,2017,11,58,122.457,122.457,87.9672,10.07345,-999.00,-1.75,-999.0,no,yes,no,38,unknown,unknown,unknown,South
